This is the latest recevied weather packets stored in our database for station/object N8VDS-10. If no packets are shown the sender has not sent any weather packets the latest 10 day(s).
| Time | Temp. | Humidity | Pressure | Rain* | Wind** | Luminosity | Snow |
|---|---|---|---|---|---|---|---|
| 1777674143 | 7.22° C | 55% | 1018.8 hPa | 0 mm | - | 73 W/m² | - |
| 1777673840 | 6.67° C | 55% | 1018.6 hPa | 0 mm | - | 70 W/m² | - |
| 1777673537 | 7.22° C | 55% | 1018.5 hPa | 0 mm | - | 73 W/m² | - |
| 1777673235 | 6.67° C | 56% | 1018.6 hPa | 0 mm | - | 76 W/m² | - |
| 1777672932 | 6.67° C | 58% | 1018.6 hPa | 0 mm | - | 80 W/m² | - |
| 1777672629 | 6.67° C | 59% | 1018.4 hPa | 0 mm | - | 91 W/m² | - |
| 1777672324 | 6.67° C | 58% | 1018.4 hPa | 0 mm | - | 87 W/m² | - |
| 1777672019 | 7.22° C | 57% | 1018.4 hPa | 0 mm | - | 74 W/m² | - |
| 1777671716 | 7.22° C | 56% | 1018.4 hPa | 0 mm | - | 95 W/m² | - |
| 1777671412 | 7.22° C | 56% | 1018.5 hPa | 0 mm | - | 110 W/m² | - |
| 1777671108 | 7.22° C | 56% | 1018.5 hPa | 0 mm | - | 119 W/m² | - |
| 1777670805 | 7.22° C | 55% | 1018.4 hPa | 0 mm | - | 95 W/m² | - |
| 1777670502 | 7.22° C | 55% | 1018.4 hPa | 0 mm | - | 88 W/m² | - |
| 1777670198 | 7.22° C | 54% | 1018.3 hPa | 0 mm | - | 99 W/m² | - |
| 1777669896 | 7.22° C | 54% | 1018.2 hPa | 0 mm | - | 125 W/m² | - |
| 1777669592 | 7.22° C | 54% | 1018.2 hPa | 0 mm | - | 130 W/m² | - |
| 1777669289 | 7.22° C | 52% | 1018.3 hPa | 0 mm | - | 109 W/m² | - |
| 1777668985 | 7.22° C | 52% | 1018.2 hPa | 0 mm | - | 101 W/m² | - |
| 1777668683 | 7.78° C | 53% | 1018 hPa | 0 mm | - | 109 W/m² | - |
| 1777667772 | 7.78° C | 53% | 1018.1 hPa | 0 mm | - | 228 W/m² | - |
| 1777667469 | 7.78° C | 53% | 1018.2 hPa | 0 mm | - | 256 W/m² | - |
| 1777667167 | 7.78° C | 54% | 1018.1 hPa | 0 mm | - | 181 W/m² | - |
| 1777666561 | 7.22° C | 55% | 1018.1 hPa | 0 mm | - | 139 W/m² | - |
| 1777666256 | 7.22° C | 54% | 1018 hPa | 0 mm | - | 167 W/m² | - |
| 1777665954 | 7.78° C | 55% | 1018 hPa | 0 mm | - | 176 W/m² | - |
* Rain latest hour (hover to see other rain measurements)
** Current wind speed in m/s (hover to see current wind gust speed)